TimeCDT,TemperatureF,Dew PointF,Humidity,Sea Level PressureIn,VisibilityMPH,Wind Direction,Wind SpeedMPH,Gust SpeedMPH,PrecipitationIn,Events,Conditions,WindDirDegrees,DateUTC
12:52 AM,73.9,69.1,85,29.79,6.0,SE,10.4,-,N/A,,Haze,140,2013-04-16 05:52:00
1:52 AM,73.9,69.1,85,29.77,5.0,SE,12.7,-,N/A,,Haze,140,2013-04-16 06:52:00
2:52 AM,73.9,70.0,87,29.76,5.0,SSE,11.5,-,N/A,,Partly Cloudy,150,2013-04-16 07:52:00
3:52 AM,73.9,69.1,85,29.74,5.0,SSE,11.5,-,N/A,,Haze,150,2013-04-16 08:52:00
4:33 AM,73.4,69.8,88,29.74,5.0,SSE,11.5,-,N/A,,Mostly Cloudy,150,2013-04-16 09:33:00
4:52 AM,73.9,70.0,87,29.74,5.0,SSE,10.4,-,N/A,,Mostly Cloudy,160,2013-04-16 09:52:00
4:59 AM,73.4,69.8,88,29.74,5.0,SSE,11.5,-,N/A,,Scattered Clouds,160,2013-04-16 09:59:00
5:52 AM,73.0,70.0,90,29.75,5.0,SSE,12.7,-,N/A,,Partly Cloudy,160,2013-04-16 10:52:00
6:52 AM,73.0,70.0,90,29.77,4.0,SSE,11.5,-,N/A,,Clear,160,2013-04-16 11:52:00
7:52 AM,73.0,70.0,90,29.78,3.0,SE,9.2,-,N/A,,Clear,140,2013-04-16 12:52:00
8:52 AM,77.0,70.0,79,29.78,6.0,SSE,15.0,-,N/A,,Haze,150,2013-04-16 13:52:00
9:52 AM,82.9,69.1,63,29.80,8.0,SSE,18.4,25.3,N/A,,Clear,160,2013-04-16 14:52:00
10:52 AM,84.9,69.1,59,29.80,10.0,SSE,23.0,27.6,N/A,,Clear,160,2013-04-16 15:52:00
11:52 AM,86.0,68.0,55,29.80,10.0,SE,21.9,-,N/A,,Clear,140,2013-04-16 16:52:00
12:52 PM,87.1,68.0,53,29.80,10.0,SSE,16.1,-,N/A,,Clear,160,2013-04-16 17:52:00
1:52 PM,91.9,66.0,42,29.77,10.0,SSE,20.7,27.6,N/A,,Clear,150,2013-04-16 18:52:00
2:52 PM,93.9,66.9,41,29.74,10.0,SE,26.5,32.2,N/A,,Clear,130,2013-04-16 19:52:00
3:52 PM,91.0,71.1,52,29.73,9.0,SE,23.0,28.8,N/A,,Clear,130,2013-04-16 20:52:00
4:52 PM,87.1,72.0,61,29.73,8.0,ESE,23.0,29.9,N/A,,Clear,120,2013-04-16 21:52:00
5:41 PM,82.4,71.6,70,29.75,8.0,ESE,13.8,-,N/A,,Mostly Cloudy,110,2013-04-16 22:41:00
5:52 PM,82.0,73.0,74,29.74,9.0,ESE,15.0,-,N/A,,Mostly Cloudy,110,2013-04-16 22:52:00
6:12 PM,82.4,73.4,74,29.73,9.0,East,17.3,-,N/A,,Scattered Clouds,100,2013-04-16 23:12:00
6:38 PM,82.4,73.4,74,29.74,8.0,ESE,17.3,-,N/A,,Mostly Cloudy,110,2013-04-16 23:38:00
6:52 PM,82.0,73.0,74,29.75,9.0,SE,18.4,-,N/A,,Mostly Cloudy,130,2013-04-16 23:52:00
7:52 PM,81.0,73.0,77,29.78,8.0,SE,13.8,24.2,N/A,,Overcast,140,2013-04-17 00:52:00
8:32 PM,80.6,73.4,79,29.76,8.0,SE,20.7,-,N/A,,Overcast,130,2013-04-17 01:32:00
8:52 PM,79.0,73.0,82,29.70,8.0,ESE,32.2,39.1,N/A,,Overcast,120,2013-04-17 01:52:00
9:18 PM,78.8,73.4,83,29.74,7.0,SE,25.3,38.0,N/A,,Overcast,140,2013-04-17 02:18:00
9:52 PM,79.0,73.0,82,29.81,7.0,SSE,17.3,-,N/A,,Overcast,160,2013-04-17 02:52:00
10:32 PM,78.8,73.4,83,29.83,6.0,SSE,17.3,23.0,N/A,,Haze,150,2013-04-17 03:32:00
10:52 PM,79.0,73.0,82,29.82,6.0,SSE,17.3,24.2,N/A,,Haze,150,2013-04-17 03:52:00
11:52 PM,78.1,73.0,84,29.83,6.0,SSE,13.8,23.0,N/A,,Haze,150,2013-04-17 04:52:00